Location: �clusier
(49.9361°N, 2.7869°E)
Time: 07:42:04
(UTC+00:00)

Cosmos 1605 Rocket - Pass Details

Date: 16 June 2021
Orbit: 944 x 1006 km, 82.9° (Epoch: 31 July)

Event Time Altitude Azimuth Distance (km) Brightness Sun altitude
Rises 20:28:57 0° 349° (N) 3,748 8.1 -4.3°
Reaches altitude 10° 20:31:30 10° 348° (NNW) 2,794 7.4 -4.6°
Maximum altitude 20:37:55 78° 264° (W) 1,032 4.3 -5.3°
Drops below altitude 10° 20:44:16 10° 179° (S) 2,758 5.9 -6.0°
Sets 20:46:46 0° 178° (S) 3,696 6.6 -6.2°
